#timestamp,LO_Frequency,Hit,StdDev 
1653836415.0,286046997.0,N
1653836415.9,286046997.0,N
1653836435.8,286046997.1,N
1653836455.6,286046996.5,N
1653836475.5,286046999.5,N
1653836495.3,286046999.4,N
1653836515.1,286046998.3,N
1653836535.9,286047000.7,N
1653836555.7,286047000.3,N
1653836575.5,286047002.5,N
1653836595.4,286047002.5,N
1653836615.2,286047004.4,N
1653836635.1,286047001.4,N
1653836636.0,286047001.4,N
1653836655.8,286047004.2,N
1653836675.6,286047003.9,N
1653836695.5,286047001.3,N
1653836715.3,286047001.4,N
1653836735.2,286047002.6,N
1653836755.9,286047000.5,N
1653836775.7,286047001.0,N
1653836795.6,286047000.8,N
1653836815.4,286046998.8,N
1653836835.2,286046998.7,N
1653836855.1,286047000.9,N
1653836856.0,286047000.9,N
1653836875.8,286047001.2,N
1653836895.7,286046998.5,N
1653836915.5,286046997.2,N
1653836935.3,286046997.2,N
1653836955.2,286046998.5,N
1653836975.0,286046998.7,N
1653836975.9,286046998.7,N
1653836995.8,286046999.1,N
1653837015.6,286046999.0,N
1653837035.4,286046998.1,N
1653837055.3,286047001.2,N
1653837075.1,286047001.0,N
1653837095.8,286046998.2,N
1653837115.7,286046998.7,N
1653837135.5,286047001.2,N
1653837155.3,286047000.3,N
1653837175.2,286047002.3,N
1653837195.0,286047002.1,N
1653837195.9,286047002.1,N
1653837215.8,286047001.6,N
1653837235.6,286047004.4,N
1653837255.5,286047001.5,N
1653837275.3,286047002.3,N
1653837295.1,286046999.9,N
1653837315.9,286047002.4,N
1653837335.7,286047002.6,N
1653837355.5,286047002.2,N
1653837375.4,286047002.2,N
1653837395.2,286047002.4,N
1653837415.1,286047002.1,N
1653837416.0,286047002.1,N
1653837435.8,286047001.7,N
1653837455.6,286047001.6,N
1653837475.5,286047001.4,N
1653837495.3,286047001.7,N
1653837515.1,286047002.1,N
1653837535.9,286047001.9,N
1653837555.7,286047001.7,N
1653837575.6,286047002.2,N
1653837595.4,286047001.6,N
1653837615.2,286047001.4,N
1653837635.1,286047001.8,N
1653837636.0,286047001.8,N
1653837655.8,286047002.2,N
1653837675.7,286047002.0,N
1653837695.5,286047001.9,N
1653837715.3,286047001.3,N
1653837735.2,286047002.5,Y
1653837755.0,286047000.8,P
1653837755.9,286047000.8,N
1653837775.8,286047001.1,N
1653837795.1,286047000.5,N
1653837796.0,286047000.5,N
1653837815.8,286046998.5,Y
1653837835.7,286046999.0,P
1653837855.5,286046996.7,P
1653837875.4,286046995.0,N
1653837895.2,286046995.0,N
1653837915.0,286046997.1,N
1653837915.9,286046997.1,N
1653837935.8,286046996.5,N
1653837955.6,286046996.8,N
1653837975.4,286046999.0,N
1653837995.3,286046998.7,N
1653838015.1,286046998.6,N
1653838035.9,286046998.4,N
1653838055.7,286046998.3,N
1653838075.5,286046999.4,N
1653838095.4,286046999.1,N
1653838115.2,286046996.5,N
1653838135.0,286046996.7,N
1653838135.9,286046996.7,N
1653838155.8,286046999.6,N
1653838175.6,286046999.3,N
1653838195.5,286046998.9,N
1653838215.3,286047000.9,N
1653838235.1,286047001.2,N
1653838255.9,286046998.9,N
1653838275.7,286046999.3,N
1653838295.5,286046999.5,N
1653838315.4,286046999.6,N
1653838335.2,286046997.3,N
1653838355.1,286046997.4,N
1653838356.0,286046997.4,N
1653838375.8,286046996.5,N
1653838395.6,286046997.0,N
1653838415.5,286046997.9,N
1653838435.3,286046995.4,Y
1653838455.2,286046999.3,P
1653838475.9,286046998.3,P
1653838495.7,286046998.2,P
1653838515.6,286047000.8,N
1653838535.4,286046998.2,N
1653838555.2,286047001.0,N
1653838575.1,286047000.0,N
1653838576.0,286047000.0,N
1653838595.8,286047000.9,N
1653838615.7,286047000.5,N
1653838635.5,286047002.2,N
1653838655.3,286047002.7,N
1653838675.2,286047000.1,N
1653838695.0,286047000.0,N
1653838695.9,286047000.0,N
1653838715.7,286047002.6,N
1653838735.6,286047001.7,N
1653838755.4,286047004.3,N
1653838775.3,286047003.8,N
1653838795.1,286047003.7,N
1653838796.0,286047003.7,N
1653838815.8,286047002.5,N
1653838835.7,286046999.8,N
1653838855.5,286046999.7,N
1653838875.3,286047002.1,N
1653838895.2,286047002.1,N
1653838915.0,286047002.4,N
1653838915.9,286047002.4,N
1653838935.8,286047004.0,N
1653838955.6,286047002.1,N
1653838975.4,286047004.2,N
1653838995.3,286047002.5,N
1653839015.1,286047001.5,N
1653839035.9,286047001.7,N
1653839055.7,286047001.3,N
1653839075.5,286047002.8,N
1653839095.4,286047000.4,N
1653839115.2,286047000.4,N
1653839135.0,286047000.0,N
1653839135.9,286047000.0,N
1653839155.8,286047000.4,N
1653839175.6,286047000.7,N
1653839195.5,286046999.8,N
1653839215.3,286047002.4,N
1653839235.1,286047001.5,N
1653839255.9,286047002.8,N
1653839275.7,286047002.8,N
1653839295.5,286047002.8,N
1653839315.4,286047002.4,N
1653839335.2,286047000.0,N
1653839355.1,286047000.9,N
1653839356.0,286047000.9,N
1653839375.8,286046998.2,N
1653839395.6,286046998.8,N
1653839415.5,286046999.1,N
1653839435.3,286046998.3,N
1653839455.1,286047001.1,N
1653839475.9,286047000.3,N
1653839495.7,286047000.1,N
1653839515.6,286047000.1,N
1653839535.4,286047000.6,N
1653839555.2,286047000.8,N
1653839575.1,286046998.5,N
1653839576.0,286046998.5,N
1653839595.8,286046998.3,N
1653839615.6,286046999.3,N
1653839635.5,286046998.4,N
1653839655.3,286046998.5,N
1653839675.2,286046998.1,N
1653839695.9,286046998.8,N
1653839715.7,286047000.5,N
1653839735.6,286046998.1,N
1653839755.4,286046998.1,N
1653839775.2,286047000.6,N
1653839795.1,286046998.8,N
1653839796.0,286046998.8,N
1653839815.8,286046998.8,N
1653839835.0,286046998.2,N
1653839835.9,286046998.2,N
1653839855.8,286047000.8,N
1653839875.6,286047000.4,N
1653839895.5,286047000.5,N
1653839915.3,286047000.1,N
1653839935.1,286047001.2,N
1653839955.9,286046998.6,N
1653839975.7,286046999.9,N
1653839995.5,286047000.9,N
